MST,Max TemperatureF,Mean TemperatureF,Min TemperatureF,Max Dew PointF,MeanDew PointF,Min DewpointF,Max Humidity, Mean Humidity, Min Humidity, Max Sea Level PressureIn, Mean Sea Level PressureIn, Min Sea Level PressureIn, Max VisibilityMiles, Mean VisibilityMiles, Min VisibilityMiles, Max Wind SpeedMPH, Mean Wind SpeedMPH, Max Gust SpeedMPH,PrecipitationIn, CloudCover, Events, WindDirDegrees
2013-2-1,49,32,15,34,24,13,100,69,38,30.25,30.14,30.04,10,10,9,36,12,45,0.01,4,Rain,295
2013-2-2,51,34,17,26,19,13,85,54,22,30.39,30.30,30.20,10,10,10,28,14,36,0.00,1,,309
2013-2-3,56,36,15,25,14,8,88,52,15,30.30,30.06,29.90,10,10,10,18,11,23,0.00,0,,283
2013-2-4,56,35,14,19,15,10,88,52,16,30.04,29.93,29.83,10,10,10,28,12,35,0.00,0,,291
2013-2-5,53,41,28,22,20,18,59,44,28,30.09,29.96,29.83,10,10,10,17,10,22,0.00,1,,252
2013-2-6,60,47,34,25,21,15,64,42,19,30.06,29.85,29.75,10,10,10,26,12,31,0.00,4,,317
2013-2-7,49,35,21,30,22,15,100,63,26,30.21,30.13,30.07,10,8,0,20,9,23,T,2,Fog-Snow,274
2013-2-8,52,35,18,22,18,14,74,51,28,30.08,29.91,29.71,10,10,10,20,10,24,0.00,0,,175
2013-2-9,38,27,16,25,22,16,91,75,59,29.78,29.63,29.49,10,10,8,26,16,36,T,5,,347
2013-2-10,31,24,16,25,20,7,88,73,58,30.13,29.70,29.47,10,4,1,44,25,53,T,7,Snow,329
2013-2-11,32,18,4,15,9,0,86,66,46,30.27,30.19,30.13,10,10,10,17,9,21,0.00,2,,272
2013-2-12,42,26,10,15,10,2,84,57,30,30.16,30.12,30.06,10,10,10,26,16,31,0.00,0,,302
2013-2-13,49,36,22,27,19,13,78,55,31,30.04,29.98,29.89,10,10,10,36,19,43,0.00,1,,300
2013-2-14,33,23,12,27,18,8,85,62,39,30.42,30.21,30.02,10,9,2,35,17,40,T,5,Snow,322
2013-2-15,29,18,6,22,18,3,88,78,68,30.46,30.35,30.26,10,5,1,21,10,24,T,7,Snow,327
2013-2-16,53,38,23,22,20,16,81,54,26,30.27,30.10,29.94,10,10,10,30,16,38,0.00,2,,295
2013-2-17,60,40,19,24,14,-2,71,40,8,29.94,29.73,29.55,10,10,10,33,15,40,0.00,0,,265
2013-2-18,41,26,10,21,17,6,91,63,34,30.21,30.00,29.77,10,10,10,37,19,46,0.00,3,,327
2013-2-19,42,22,2,18,11,-1,92,65,37,30.27,30.14,30.01,10,10,10,26,14,33,0.00,1,,167
2013-2-20,21,18,15,18,13,6,91,76,61,30.00,29.87,29.77,10,6,0,24,18,32,T,7,Fog-Snow,124
2013-2-21,19,10,1,14,11,3,92,85,77,30.06,29.87,29.75,10,3,0,20,8,22,0.07,8,Fog-Snow,60
2013-2-22,33,17,1,21,11,0,100,81,61,30.09,29.97,29.83,10,7,0,16,10,20,0.00,3,Fog,293
2013-2-23,42,23,4,28,17,2,88,68,48,29.94,29.82,29.73,10,10,6,14,8,15,0.00,2,,234
2013-2-24,36,31,26,30,27,24,100,85,69,30.17,29.91,29.73,10,3,0,24,14,30,0.06,8,Fog-Snow,360
2013-2-25,34,22,10,21,14,6,92,71,49,30.19,30.09,29.97,10,10,10,16,9,18,T,1,,289
2013-2-26,37,22,7,27,19,3,85,66,47,30.12,29.97,29.89,10,10,10,26,16,31,0.00,2,,327
2013-2-27,36,28,19,27,21,11,92,72,52,30.32,30.20,30.06,10,8,1,24,17,30,T,3,Snow,317
2013-2-28,40,28,16,22,16,8,74,59,44,30.33,30.29,30.23,10,10,10,26,14,32,T,3,,305